Weather History for KCHA - October, 2011

Change the Weather History Date:

Thursday, October 6, 2011

  Actual Average Record
Temperature  
Mean Temperature 67 °F 65 °F  
Max Temperature 82 °F 76 °F 93 °F (1941)
Min Temperature 52 °F 54 °F 38 °F (1964)
Degree Days  
Heating Degree Days 0 3  
Month to date heating degree days 27 14  
Since 1 July heating degree days 30 29  
Cooling Degree Days 2 3  
Month to date cooling degree days 3 19  
Year to date cooling degree days 2100 1708  
Growing Degree Days 17 (Base 50)    
Moisture  
Dew Point 55 °F    
Average Humidity 66    
Maximum Humidity 93    
Minimum Humidity 39    
Precipitation  
Precipitation 0.00 in 0.10 in 2.01 in (1959)
Month to date precipitation 0.00 0.69  
Year to date precipitation 47.42 39.99  
Snow  
Snow 0.00 in 0.00 in - ()
Month to date snowfall 0.0 0.0  
Since 1 July snowfall 0.0 0.0  
Since 1 September snowfall 0.0 0.0  
Snow Depth 0.00 in    
Sea Level Pressure  
Sea Level Pressure 30.25 in    
Wind  
Wind Speed 1 mph (ESE)    
Max Wind Speed 9 mph    
Max Gust Speed 13 mph    
Visibility 10 miles    
Events Fog    
T = Trace of Precipitation, MM = Missing Value Source: NWS Daily Summary

Daily Weather History Graph

Daily Weather History Graph

Search for Another Location

Airport or City:

Trip Planner

Search our weather history database for the weather conditions in past years. The results will help you decide how hot, cold, wet, or windy it might be!

Date:

Astronomy

Oct. 06, 2011 Rise Set
Actual Time 7:39 AM EDT 7:18 PM EDT
Civil Twilight 7:13 AM EDT 7:43 PM EDT
Nautical Twilight 6:44 AM EDT 8:12 PM EDT
Astronomical Twilight 6:15 AM EDT 8:42 PM EDT
Moon 4:21 PM EDT (10/6) 2:38 AM EDT (10/6)
Length of Visible Light 12h 29m
Length of Day
11h 38m
Waxing Gibbous, 75% of the Moon is Illuminated
Oct 6
Waxing Gibbous
Oct 11
Full
Oct 19
Last Quarter
Oct 26
New
Nov 2
First Quarter

Hourly Weather History & Observations

Time (EDT) Temp. Heat Index Dew Point Humidity Pressure Visibility Wind Dir Wind Speed Gust Speed Precip Events Conditions
12:53 AM 59.0 °F - 54.0 °F 83% 30.21 in 10.0 mi Calm Calm - N/A   Clear
1:53 AM 57.0 °F - 53.1 °F 87% 30.21 in 10.0 mi Calm Calm - N/A   Clear
2:53 AM 55.0 °F - 53.1 °F 93% 30.21 in 10.0 mi Calm Calm - N/A   Clear
3:53 AM 55.9 °F - 52.0 °F 87% 30.22 in 10.0 mi Calm Calm - N/A   Clear
4:53 AM 55.0 °F - 52.0 °F 89% 30.22 in 10.0 mi Calm Calm - N/A   Clear
5:53 AM 53.1 °F - 51.1 °F 93% 30.23 in 10.0 mi Calm Calm - N/A   Clear
6:53 AM 53.1 °F - 51.1 °F 93% 30.25 in 10.0 mi Calm Calm - N/A   Clear
7:53 AM 53.1 °F - 50.0 °F 89% 30.27 in 10.0 mi Calm Calm - N/A Fog Shallow Fog
8:53 AM 55.0 °F - 52.0 °F 89% 30.29 in 10.0 mi Calm Calm - N/A   Partly Cloudy
9:53 AM 62.1 °F - 55.0 °F 78% 30.30 in 10.0 mi Calm Calm - N/A   Partly Cloudy
10:53 AM 66.9 °F - 57.0 °F 70% 30.31 in 10.0 mi Calm Calm - N/A   Scattered Clouds
11:53 AM 72.0 °F - 55.9 °F 57% 30.30 in 10.0 mi Calm Calm - N/A   Scattered Clouds
12:53 PM 73.9 °F - 55.0 °F 52% 30.29 in 10.0 mi Calm Calm - N/A   Scattered Clouds
1:53 PM 79.0 °F - 53.1 °F 40% 30.26 in 10.0 mi SE 6.9 mph - N/A   Scattered Clouds
2:53 PM 79.0 °F - 54.0 °F 42% 30.24 in 10.0 mi Variable 5.8 mph - N/A   Scattered Clouds
3:53 PM 81.0 °F 80.5 °F 54.0 °F 39% 30.22 in 10.0 mi ENE 4.6 mph - N/A   Mostly Cloudy
4:53 PM 79.0 °F - 55.0 °F 44% 30.22 in 10.0 mi Calm Calm - N/A   Mostly Cloudy
5:53 PM 81.0 °F 80.8 °F 55.9 °F 42% 30.22 in 10.0 mi Calm Calm - N/A   Mostly Cloudy
6:53 PM 77.0 °F - 57.0 °F 50% 30.23 in 10.0 mi Calm Calm - N/A   Mostly Cloudy
7:53 PM 71.1 °F - 59.0 °F 66% 30.24 in 10.0 mi Calm Calm - N/A   Scattered Clouds
8:53 PM 68.0 °F - 59.0 °F 73% 30.25 in 10.0 mi Calm Calm - N/A   Scattered Clouds
9:53 PM 64.9 °F - 59.0 °F 81% 30.27 in 10.0 mi Calm Calm - N/A   Scattered Clouds
10:53 PM 63.0 °F - 57.9 °F 84% 30.29 in 10.0 mi Calm Calm - N/A   Scattered Clouds
11:53 PM 61.0 °F - 57.0 °F 87% 30.29 in 10.0 mi Calm Calm - N/A   Partly Cloudy